Powrót do katalogu

STARLINK-3276

AktywnyŁącznośćVLEO
NORAD 50189·PAYLOAD·🇺🇸 United States

Wystrzelony Dec 18, 2021 z Vandenberg Space Force Base

Loading…

Następne Przeloty (najbliższe 24 godziny)

TLE

ŚwieżeSource: CelesTrak SupGP

Epoka: Sep 14, 2026, 21:31 UTC

1 50189C 21125AK  26257.89701389  .00000177  00000+0  81450-5 0  2575
2 50189  53.2136 109.0987 0002741  59.4301 350.7230 15.19714477    12

Śledź STARLINK-3276 w czasie rzeczywistym z AllMySat

Download on the App Store